Powrót do katalogu

STARLINK-37807

AktywnyŁącznośćVLEO
NORAD 100046·PAYLOAD·🇺🇸 United States

Wystrzelony Jul 14, 2026 z Cape Canaveral Space Force Station

Loading…

Następne Przeloty (najbliższe 24 godziny)

TLE

ŚwieżeSource: Space-Track

Epoka: Sep 14, 2026, 08:25 UTC

1 A0046U 26161U   26257.35134818  .00018430  00000-0  55542-3 0  9991
2 A0046  53.1616  26.6520 0001081  74.3383 285.7739 15.34390773  9667

Śledź STARLINK-37807 w czasie rzeczywistym z AllMySat

Download on the App Store